User: anonymous
Location: Unspecified
(0.0000°N, 0.0000°E)
Time: 00:44:47
(UTC+02:00)
Language:

Milstar 3 Cent rocket - Orbit

View from above orbital plane
View from above orbital plane
View from above satellite
View from above satellite

Ground track
Ground track

The orbit data is extracted from the following two-line orbital elements,

1 25725U 99023B   14288.02079552 0.00000100  00000-0  22234-3 0    07
2 25725  28.3251 181.6450 2388418 134.0378 225.9617  9.67198823    04
Epoch (UTC): 15 October 2014 00:29:56
Eccentricity: 0.2388418
inclination: 28.3251°
perigee height: 704 km
apogee height: 5149 km
right ascension of ascending node: 181.6450°
argument of perigee: 134.0378°
revolutions per day: 9.67198823
mean anomaly at epoch: 225.9617°
orbit number at epoch: 0

The dashed part of the orbit path shows where the satellite is in the earth's shadow,  

DLR